Regional Weather Roundup
Issued by NWS

Home | Current Version | Previous Version | Graphics & Text | Print | Product List | Glossary On
Versions: 1 2 3 4 5 6 7 8 9 10 11 12 13 14 15 16 17 18 19 20 21 22 23 24 25 26 27 28 29 30 31 32 33 34 35 36 37 38 39 40 41 42 43 44 45 46 47 48 49 50
000
ASUS44 KMEG 231000
RWRTN
TENNESSEE HOURLY STATE WEATHER ROUNDUP
NATIONAL WEATHER SERVICE MEMPHIS TN
500 AM CDT WED APR 23 2014

TNZ002-004-019-021-049-052-054-088>092-231100-
WEST TENNESSEE

CITY           SKY/WX    TMP DP  RH WIND       PRES   REMARKS
MEMPHIS INTL   CLEAR     54  41  61 E5        30.00S
NWS MEMPHIS      N/A     46 N/A N/A MISG        N/A
JACKSON        CLEAR     41  38  89 CALM      30.01R
DYERSBURG      CLEAR     46  36  66 CALM      30.03R
UNION CITY     CLEAR     46  37  71 NE3       30.01R
LEXINGTON      CLEAR     45  39  81 CALM      29.99R
$$

TNZ008-025-027-028-033-062-065-066-231100-
NORTH MIDDLE TENNESSEE

CITY           SKY/WX    TMP DP  RH WIND       PRES   REMARKS
NASHVILLE      CLEAR     51  39  63 N6        30.00R
CLARKSVILLE    CLEAR     46  38  73 N6        30.01R
COOKEVILLE     CLEAR     39  36  87 CALM      29.97R
CROSSVILLE     CLEAR     47  28  47 N8        29.97R
$$

TNZ061-075-076-078-094-096-097-231100-
SOUTH MIDDLE TENNESSEE

CITY           SKY/WX    TMP DP  RH WIND       PRES   REMARKS
TULLAHOMA      CLEAR     39  37  93 CALM      29.97R
WINCHESTER     CLEAR     39  39 100 CALM      29.96S
MCMINNVILLE    CLEAR     46  37  71 N6        29.97R
COLUMBIA       CLEAR     43  43 100 CALM      29.97R
$$

TNZ017-018-042-046-047-231100-
NORTHEAST TENNESSEE

CITY           SKY/WX    TMP DP  RH WIND       PRES   REMARKS
TRI CITIES     CLEAR     48  29  47 NW6       29.92R
ELIZABETHTON   SUNNY     46  30  53 CALM      29.90R
$$

TNZ012-013-036-069-073-074-231100-
CENTRAL EAST TENNESSEE

CITY           SKY/WX    TMP DP  RH WIND       PRES   REMARKS
KNOXVILLE      CLEAR     50  33  52 N6        29.94R
OAK RIDGE      CLEAR     51  30  44 NE5       29.97R
$$

TNZ083-085-099-231100-
SOUTHEAST TENNESSEE

CITY           SKY/WX    TMP DP  RH WIND       PRES   REMARKS
CHATTANOOGA    CLEAR     53  39  59 NW7       29.94R
$$

SKY/WX REPORTED AS FAIR MEANS FEW OR NO CLOUDS BELOW
12 THOUSAND FEET.




USA.gov is the U.S. government's official web portal to all federal, state and local government web resources and services.